Terminal Aerodrome Forecast
Issued by NWS Knoxville/Tri Cities, TN

Home | Current Version | Previous Version | Text Only | Print | Product List | Glossary On
Versions: 1 2 3 4 5 6 7 8 9 10 11 12 13 14
000
FTUS44 KMRX 242320
TAFTYS
TAF
KTYS 242320Z 2500/2524 05004KT P6SM SCT200
     FM250100 00000KT P6SM SCT250
     FM251400 04005KT P6SM SCT150 BKN250=

USA.gov is the U.S. government's official web portal to all federal, state and local government web resources and services.